TimeMDT,TemperatureF,Dew PointF,Humidity,Sea Level PressureIn,VisibilityMPH,Wind Direction,Wind SpeedMPH,Gust SpeedMPH,PrecipitationIn,Events,Conditions,WindDirDegrees,DateUTC
12:15 AM,60.8,39.2,45,29.83,10.0,SE,3.5,-,N/A,,Clear,140,2013-05-07 06:15:00
12:35 AM,59.0,39.2,48,29.84,10.0,ESE,4.6,-,N/A,,Unknown,120,2013-05-07 06:35:00
12:55 AM,59.0,39.2,48,29.84,10.0,NE,5.8,-,N/A,,Unknown,40,2013-05-07 06:55:00
1:15 AM,59.0,41.0,51,29.83,10.0,East,4.6,-,N/A,,Mostly Cloudy,80,2013-05-07 07:15:00
1:35 AM,57.2,41.0,55,29.83,10.0,East,3.5,-,N/A,,Mostly Cloudy,80,2013-05-07 07:35:00
1:55 AM,57.2,39.2,51,29.83,10.0,NE,3.5,-,N/A,,Scattered Clouds,50,2013-05-07 07:55:00
2:15 AM,55.4,39.2,54,29.83,10.0,Calm,Calm,-,N/A,,Unknown,0,2013-05-07 08:15:00
2:35 AM,55.4,41.0,58,29.82,10.0,Calm,Calm,-,N/A,,Unknown,0,2013-05-07 08:35:00
2:55 AM,53.6,41.0,62,29.83,10.0,South,3.5,-,N/A,,Unknown,180,2013-05-07 08:55:00
3:15 AM,53.6,41.0,62,29.83,10.0,Calm,Calm,-,N/A,,Unknown,0,2013-05-07 09:15:00
3:55 AM,53.6,41.0,62,29.83,10.0,Calm,Calm,-,N/A,,Unknown,0,2013-05-07 09:55:00
4:15 AM,53.6,42.8,67,29.83,10.0,Calm,Calm,-,N/A,,Unknown,0,2013-05-07 10:15:00
4:35 AM,53.6,42.8,67,29.84,10.0,East,4.6,-,N/A,,Unknown,100,2013-05-07 10:35:00
4:55 AM,53.6,42.8,67,29.84,10.0,ESE,3.5,-,N/A,,Unknown,110,2013-05-07 10:55:00
5:15 AM,53.6,42.8,67,29.84,10.0,Calm,Calm,-,N/A,,Unknown,0,2013-05-07 11:15:00
5:35 AM,50.0,42.8,76,29.83,10.0,Calm,Calm,-,N/A,,Unknown,0,2013-05-07 11:35:00
5:55 AM,50.0,42.8,76,29.84,10.0,East,4.6,-,N/A,,Clear,90,2013-05-07 11:55:00
6:15 AM,48.2,41.0,76,29.84,10.0,East,4.6,-,N/A,,Clear,100,2013-05-07 12:15:00
6:35 AM,48.2,41.0,76,29.84,10.0,Calm,Calm,-,N/A,,Clear,0,2013-05-07 12:35:00
6:55 AM,48.2,41.0,76,29.85,10.0,Calm,Calm,-,N/A,,Clear,0,2013-05-07 12:55:00
7:15 AM,50.0,41.0,71,29.85,10.0,Calm,Calm,-,N/A,,Clear,0,2013-05-07 13:15:00
7:35 AM,51.8,41.0,67,29.86,10.0,Calm,Calm,-,N/A,,Clear,0,2013-05-07 13:35:00
7:55 AM,51.8,42.8,71,29.86,10.0,South,3.5,-,N/A,,Clear,180,2013-05-07 13:55:00
8:15 AM,55.4,42.8,63,29.86,10.0,Calm,Calm,-,N/A,,Clear,0,2013-05-07 14:15:00
8:35 AM,59.0,41.0,51,29.87,10.0,SW,3.5,-,N/A,,Clear,220,2013-05-07 14:35:00
8:55 AM,60.8,41.0,48,29.87,10.0,West,3.5,-,N/A,,Clear,260,2013-05-07 14:55:00
9:15 AM,60.8,41.0,48,29.87,10.0,WSW,4.6,-,N/A,,Clear,240,2013-05-07 15:15:00
9:35 AM,62.6,41.0,45,29.87,10.0,SW,5.8,-,N/A,,Clear,220,2013-05-07 15:35:00
9:55 AM,64.4,41.0,42,29.87,10.0,SW,4.6,-,N/A,,Clear,220,2013-05-07 15:55:00
10:15 AM,66.2,39.2,37,29.87,10.0,SSW,5.8,-,N/A,,Clear,210,2013-05-07 16:15:00
10:35 AM,68.0,39.2,35,29.87,10.0,WSW,5.8,-,N/A,,Clear,240,2013-05-07 16:35:00
10:55 AM,68.0,39.2,35,29.87,10.0,SSW,5.8,-,N/A,,Clear,210,2013-05-07 16:55:00
11:15 AM,71.6,39.2,31,29.87,10.0,SW,3.5,-,N/A,,Clear,220,2013-05-07 17:15:00
11:35 AM,71.6,39.2,31,29.87,10.0,SW,8.1,-,N/A,,Clear,220,2013-05-07 17:35:00
11:55 AM,71.6,39.2,31,29.87,10.0,SSE,4.6,-,N/A,,Clear,150,2013-05-07 17:55:00
12:15 PM,71.6,39.2,31,29.87,10.0,SSE,9.2,-,N/A,,Clear,160,2013-05-07 18:15:00
12:35 PM,73.4,39.2,29,29.86,10.0,SSW,11.5,18.4,N/A,,Clear,200,2013-05-07 18:35:00
12:55 PM,73.4,41.0,31,29.86,10.0,South,12.7,24.2,N/A,,Clear,180,2013-05-07 18:55:00
1:15 PM,73.4,39.2,29,29.86,10.0,South,10.4,-,N/A,,Clear,170,2013-05-07 19:15:00
1:35 PM,73.4,39.2,29,29.85,10.0,SSE,12.7,21.9,N/A,,Clear,150,2013-05-07 19:35:00
1:55 PM,73.4,39.2,29,29.85,10.0,South,15.0,21.9,N/A,,Clear,190,2013-05-07 19:55:00
2:15 PM,73.4,39.2,29,29.85,10.0,South,15.0,20.7,N/A,,Clear,180,2013-05-07 20:15:00
2:35 PM,73.4,39.2,29,29.84,10.0,South,12.7,20.7,N/A,,Clear,180,2013-05-07 20:35:00
2:55 PM,75.2,39.2,27,29.85,10.0,South,10.4,20.7,N/A,,Clear,190,2013-05-07 20:55:00
3:15 PM,73.4,39.2,29,29.84,10.0,South,8.1,18.4,N/A,,Clear,170,2013-05-07 21:15:00
3:35 PM,73.4,39.2,29,29.84,10.0,SSE,8.1,-,N/A,,Clear,150,2013-05-07 21:35:00
3:55 PM,75.2,39.2,27,29.84,10.0,SSE,4.6,-,N/A,,Partly Cloudy,150,2013-05-07 21:55:00
4:15 PM,75.2,39.2,27,29.84,10.0,ESE,12.7,18.4,N/A,,Partly Cloudy,120,2013-05-07 22:15:00
4:35 PM,75.2,39.2,27,29.84,10.0,SE,8.1,-,N/A,,Clear,140,2013-05-07 22:35:00
4:55 PM,73.4,42.8,33,29.85,10.0,SE,18.4,23.0,N/A,,Scattered Clouds,140,2013-05-07 22:55:00
5:15 PM,71.6,42.8,35,29.85,10.0,SE,17.3,21.9,N/A,,Mostly Cloudy,130,2013-05-07 23:15:00
5:35 PM,68.0,42.8,40,29.86,10.0,SE,10.4,17.3,N/A,,Partly Cloudy,140,2013-05-07 23:35:00
5:55 PM,68.0,44.6,43,29.86,10.0,SSE,5.8,-,N/A,,Clear,150,2013-05-07 23:55:00
6:15 PM,69.8,42.8,38,29.86,10.0,SE,5.8,-,N/A,,Clear,140,2013-05-08 00:15:00
6:35 PM,68.0,41.0,37,29.86,10.0,Calm,Calm,-,N/A,,Clear,0,2013-05-08 00:35:00
6:55 PM,68.0,44.6,43,29.87,10.0,NE,8.1,-,N/A,,Clear,40,2013-05-08 00:55:00
7:15 PM,66.2,42.8,43,29.86,10.0,ESE,6.9,-,N/A,,Clear,110,2013-05-08 01:15:00
7:35 PM,68.0,42.8,40,29.85,10.0,ESE,3.5,-,N/A,,Clear,120,2013-05-08 01:35:00
7:55 PM,66.2,42.8,43,29.86,10.0,SE,6.9,-,N/A,,Scattered Clouds,130,2013-05-08 01:55:00
8:15 PM,66.2,42.8,43,29.86,10.0,East,9.2,-,N/A,,Partly Cloudy,100,2013-05-08 02:15:00
8:35 PM,64.4,44.6,49,29.87,10.0,ENE,3.5,-,N/A,,Partly Cloudy,60,2013-05-08 02:35:00
8:55 PM,64.4,44.6,49,29.87,10.0,South,3.5,-,N/A,,Mostly Cloudy,180,2013-05-08 02:55:00
9:15 PM,64.4,44.6,49,29.88,10.0,NW,6.9,-,N/A,,Unknown,320,2013-05-08 03:15:00
9:35 PM,66.2,42.8,43,29.89,10.0,SW,4.6,-,N/A,,Overcast,230,2013-05-08 03:35:00
9:55 PM,66.2,44.6,46,29.88,10.0,SW,12.7,-,N/A,,Overcast,220,2013-05-08 03:55:00
10:15 PM,64.4,44.6,49,29.90,10.0,SSW,6.9,-,N/A,,Unknown,200,2013-05-08 04:15:00
10:35 PM,64.4,44.6,49,29.92,10.0,SSW,6.9,-,N/A,,Overcast,200,2013-05-08 04:35:00
10:55 PM,62.6,44.6,52,29.92,10.0,Calm,Calm,-,N/A,,Mostly Cloudy,0,2013-05-08 04:55:00
11:15 PM,60.8,44.6,55,29.92,10.0,Calm,Calm,-,N/A,,Clear,0,2013-05-08 05:15:00
11:35 PM,59.0,44.6,59,29.93,10.0,South,3.5,-,N/A,,Unknown,180,2013-05-08 05:35:00
11:55 PM,59.0,44.6,59,29.93,10.0,SSE,3.5,-,N/A,,Unknown,150,2013-05-08 05:55:00